Weather History for KFVE - November, 2011

Change the Weather History Date:

Saturday, November 26, 2011

  Actual Average Record
Temperature  
Mean Temperature 35 °F 25 °F  
Max Temperature 40 °F 31 °F 54 °F (2001)
Min Temperature 30 °F 19 °F 9 °F (2005)
Degree Days  
Heating Degree Days 30    
Month to date heating degree days 774  
Since 1 July heating degree days 1790  
Cooling Degree Days 0    
Month to date cooling degree days 0  
Year to date cooling degree days 87  
Moisture  
Dew Point 28 °F    
Average Humidity 73    
Maximum Humidity 93    
Minimum Humidity 59    
Precipitation  
Precipitation T in 0.10 in 0.59 in (2008)
Month to date precipitation 1.53 2.54  
Year to date precipitation 38.83 30.66  
Sea Level Pressure  
Sea Level Pressure 30.09 in    
Wind  
Wind Speed 9 mph (NW)    
Max Wind Speed 21 mph    
Max Gust Speed 30 mph    
Visibility 10 miles    
Events Rain    
T = Trace of Precipitation, MM = Missing Value Source: NWS Daily Summary

Daily Weather History Graph

Daily Weather History Graph

Search for Another Location

Airport or City:

Trip Planner

Search our weather history database for the weather conditions in past years. The results will help you decide how hot, cold, wet, or windy it might be!

Date:

Astronomy

Nov. 26, 2011 Rise Set
Actual Time 6:52 AM EST 3:48 PM EST
Civil Twilight 6:18 AM EST 4:22 PM EST
Nautical Twilight 5:40 AM EST 5:00 PM EST
Astronomical Twilight 5:03 AM EST 5:37 PM EST
Moon 8:24 AM EST (11/26) 5:11 PM EST (11/26)
Length of Visible Light 10h 04m
Length of Day
8h 55m
Waxing Crescent, 3% of the Moon is Illuminated
Nov 26
Waxing Crescent
Dec 2
First Quarter
Dec 10
Full
Dec 17
Last Quarter
Dec 24
New

Hourly Weather History & Observations

Time (EST) Temp. Windchill Dew Point Humidity Pressure Visibility Wind Dir Wind Speed Gust Speed Precip Events Conditions
12:53 AM 39.9 °F 33.9 °F 36.0 °F 86% 29.83 in 8.0 mi West 9.2 mph - N/A   Overcast
1:53 AM 39.9 °F 33.9 °F 36.0 °F 86% 29.85 in 8.0 mi WSW 9.2 mph - N/A   Overcast
2:53 AM 39.9 °F 35.1 °F 36.0 °F 86% 29.87 in 8.0 mi West 6.9 mph - N/A   Overcast
3:53 AM 39.0 °F 32.8 °F 36.0 °F 89% 29.89 in 8.0 mi West 9.2 mph - 0.00 in Rain Light Rain
4:11 AM 39.2 °F 33.6 °F 37.4 °F 93% 29.88 in 7.0 mi West 8.1 mph - 0.00 in Rain Light Rain
4:53 AM 39.0 °F 32.3 °F 36.0 °F 89% 29.92 in 9.0 mi NW 10.4 mph - 0.00 in   Overcast
5:11 AM 39.2 °F 32.5 °F 33.8 °F 81% 29.91 in 10.0 mi NW 10.4 mph - N/A   Overcast
5:53 AM 36.0 °F 28.0 °F 32.0 °F 86% 29.96 in 10.0 mi WNW 11.5 mph - N/A   Partly Cloudy
6:53 AM 35.1 °F 26.9 °F 30.0 °F 82% 30.00 in 10.0 mi WNW 11.5 mph - N/A   Partly Cloudy
7:53 AM 36.0 °F 27.1 °F 28.0 °F 73% 30.04 in 10.0 mi NW 13.8 mph - N/A   Clear
8:53 AM 37.0 °F 28.9 °F 28.0 °F 70% 30.07 in 10.0 mi NNW 12.7 mph - N/A   Clear
9:53 AM 37.0 °F 28.9 °F 27.0 °F 67% 30.10 in 10.0 mi WNW 12.7 mph - N/A   Scattered Clouds
10:22 AM 37.4 °F 29.8 °F 28.4 °F 70% 30.08 in 10.0 mi NNW 11.5 mph - N/A   Overcast
10:53 AM 37.0 °F 27.4 °F 27.0 °F 67% 30.10 in 10.0 mi NNW 17.3 mph 21.9 mph N/A   Overcast
11:53 AM 39.0 °F 30.3 °F 26.1 °F 60% 30.11 in 10.0 mi NNW 16.1 mph 20.7 mph N/A   Mostly Cloudy
12:06 PM 39.2 °F 32.0 °F 26.6 °F 61% 30.09 in 10.0 mi NW 11.5 mph - N/A   Mostly Cloudy
12:53 PM 37.9 °F 30.0 °F 25.0 °F 60% 30.12 in 10.0 mi NNW 12.7 mph 21.9 mph N/A   Partly Cloudy
1:53 PM 37.0 °F 28.5 °F 24.1 °F 59% 30.13 in 10.0 mi NNW 13.8 mph - N/A   Clear
2:53 PM 36.0 °F 27.5 °F 23.0 °F 59% 30.17 in 10.0 mi NNW 12.7 mph - N/A   Overcast
3:53 PM 34.0 °F 27.2 °F 23.0 °F 64% 30.18 in 10.0 mi NW 8.1 mph - N/A   Overcast
4:53 PM 34.0 °F 29.8 °F 23.0 °F 64% 30.20 in 10.0 mi NNW 4.6 mph - N/A   Overcast
5:53 PM 34.0 °F 28.8 °F 24.1 °F 67% 30.25 in 10.0 mi North 5.8 mph - N/A   Overcast
6:53 PM 34.0 °F 31.0 °F 24.1 °F 67% 30.26 in 10.0 mi North 3.5 mph - N/A   Overcast
7:53 PM 32.0 °F 26.4 °F 23.0 °F 69% 30.23 in 10.0 mi North 5.8 mph - N/A   Scattered Clouds
8:53 PM 30.9 °F 24.3 °F 23.0 °F 72% 30.29 in 10.0 mi NNE 6.9 mph - N/A   Mostly Cloudy
9:53 PM 30.9 °F 26.2 °F 23.0 °F 72% 30.29 in 10.0 mi North 4.6 mph - N/A   Overcast
10:53 PM 30.9 °F 27.5 °F 23.0 °F 72% 30.31 in 10.0 mi ENE 3.5 mph - N/A   Overcast
11:53 PM 30.9 °F 27.5 °F 21.9 °F 69% 30.32 in 10.0 mi North 3.5 mph - N/A   Overcast